Regional Weather Roundup
Issued by NWS

Home | Current Version | Previous Version | Graphics & Text | Print | Product List | Glossary On
Versions: 1 2 3 4 5 6 7 8 9 10 11 12 13 14 15 16 17 18 19 20 21 22 23 24 25 26 27 28 29 30 31 32 33 34 35 36 37 38 39 40 41 42 43 44 45 46 47 48 49 50
000
ASUS44 KMEG 231310
RWRTN
TENNESSEE HOURLY STATE WEATHER ROUNDUP
NATIONAL WEATHER SERVICE MEMPHIS TN
800 AM CDT TUE SEP 23 2014

TNZ002-004-019-021-049-052-054-088>092-231400-
WEST TENNESSEE

CITY           SKY/WX    TMP DP  RH WIND       PRES   REMARKS
MEMPHIS INTL   MOSUNNY   58  47  66 E6        30.23S
NWS MEMPHIS      N/A     55 N/A N/A MISG        N/A
JACKSON        SUNNY     53  48  83 CALM      30.25S
DYERSBURG      SUNNY     52  39  62 NE6       30.27S
UNION CITY     SUNNY     48  48 100 CALM      30.26R
PARIS          SUNNY     52  46  82 E6        30.26S
HUNTINGDON     SUNNY     51  46  83 E6        30.26S
LEXINGTON      SUNNY     52  46  82 NE5       30.23S
SAVANNAH       SUNNY     48  48 100 NW3       30.23S
$$

TNZ008-025-027-028-033-062-065-066-231400-
NORTH MIDDLE TENNESSEE

CITY           SKY/WX    TMP DP  RH WIND       PRES   REMARKS
NASHVILLE      SUNNY     55  48  77 NE8       30.27R
DICKSON        SUNNY     50  45  81 CALM      30.25S
PORTLAND       SUNNY     46  45  93 CALM      30.28R
CLARKSVILLE    SUNNY     52  46  80 CALM      30.28S
LEBANON        SUNNY     48  46  93 CALM      30.26R
SMYRNA         SUNNY     53  49  86 CALM      30.28R
MURFREESBORO   SUNNY     50  46  85 CALM      30.26R
COOKEVILLE     SUNNY     50  48  93 CALM      30.26R
LIVINGSTON     SUNNY     50  48  92 NE6       30.27R
CROSSVILLE     SUNNY     53  48  83 E3        30.27S
$$

TNZ061-075-076-078-094-096-097-231400-
SOUTH MIDDLE TENNESSEE

CITY           SKY/WX    TMP DP  RH WIND       PRES   REMARKS
LEWISBURG      SUNNY     50  47  89 CALM      30.25R
FAYETTEVILLE   SUNNY     52  46  82 NE8       30.24R
TULLAHOMA      SUNNY     54  46  76 NE7       30.25S
WINCHESTER     SUNNY     52  48  87 CALM      30.25R
MCMINNVILLE    SUNNY     52  52 100 CALM      30.26R
COLUMBIA       SUNNY     52  52 100 CALM      30.24R
SHELBYVILLE    SUNNY     50  48  93 N3        30.26R
$$

TNZ017-018-042-046-047-231400-
NORTHEAST TENNESSEE

CITY           SKY/WX    TMP DP  RH WIND       PRES   REMARKS
TRI CITIES     MOSUNNY   51  46  83 CALM      30.28S
ELIZABETHTON   SUNNY     50  46  87 E6        30.29R
$$

TNZ012-013-036-069-073-074-231400-
CENTRAL EAST TENNESSEE

CITY           SKY/WX    TMP DP  RH WIND       PRES   REMARKS
KNOXVILLE      SUNNY     56  49  77 NE10      30.25R
OAK RIDGE      SUNNY     57  50  77 CALM      30.28R
GATLINBURG     SUNNY     52  46  82 CALM      30.26R
MORRISTOWN     SUNNY     54  46  76 NE9       30.27S
$$

TNZ083-085-099-231400-
SOUTHEAST TENNESSEE

CITY           SKY/WX    TMP DP  RH WIND       PRES   REMARKS
CHATTANOOGA    SUNNY     61  50  67 NE13      30.25R
$$

SKY/WX REPORTED AS FAIR MEANS FEW OR NO CLOUDS BELOW
12 THOUSAND FEET.



USA.gov is the U.S. government's official web portal to all federal, state and local government web resources and services.